Location: Bergnershof
(48.9468°N, 10.9431°E)
Time: 15:55:40
(UTC+00:00)

Cosmos 2333 Rocket - Pass Details

Date: 29 June 2021
Orbit: 841 x 861 km, 70.8° (Epoch: 24 July)

Event Time Altitude Azimuth Distance (km) Brightness Sun altitude
Rises 01:45:03 0° 334° (NNW) 3,423 5.8 -10.9°
Reaches altitude 10° 01:48:49 10° 359° (N) 2,480 5.5 -10.5°
Maximum altitude 01:51:48 14° 31° (NNE) 2,180 5.8 -10.3°
Drops below altitude 10° 01:54:47 10° 63° (ENE) 2,470 5.7 -10.0°
Sets 01:58:31 0° 87° (E) 3,399 6.0 -9.6°
